Home > Weather > Colchester County > Past weeks

Flag for Canada Weather for the Past 2 Weeks in Colchester County, Nova Scotia, Canada

Now
14 °F

Light snow. Ice fog.


Feels Like: 0 °F
Forecast: 6 / 17 °F
Wind: 13 mph from North

Location: Halifax International Airport

Current Time: Feb 13, 2016 at 2:18:25 PM

Latest Report: Feb 13, 2016 at 1:51 PM


Visibility: 2 mi

Pressure: 29.62 "Hg

Humidity: 73%

Dew point: 7 °F

Location of Colchester CountyLocation

Historic Weather in Colchester County — Graph

°F

Colchester County Temperature Yesterday

Maximum temperature yesterday: 23 °F (at 12:00 AM)
Minimum temperature yesterday: 7 °F (at 11:00 PM)
Average temperature yesterday: 15 °F

High & Low Weather Summary for the Past Weeks

 TemperatureHumidityPressure
High50 °F (Feb 4, 8:00 AM)100% (Jan 29, 1:00 PM)30.54 "Hg (Jan 29, 1:00 PM)
Low7 °F (Feb 12, 11:00 PM)40% (Feb 2, 3:00 PM)29.01 "Hg (Jan 29, 5:00 PM)
Average28 °F88%29.85 "Hg
* Reported Jan 29 1:00 PM — Feb 13 1:00 PM, Colchester County, Weather by CustomWeather, © 2016

Note: Actual official high and low records may vary slightly from our data, if they occured in-between our weather recording intervals... More about our weather records

Advertising

Colchester County Weather History for the Previous 24 Hours

 ConditionsComfort  
Time TempWeatherWind HumidityBarometerVisibility
1:00 PM
Sat, Feb 13
14 °FLight snow. Overcast.15 mph73%29.65 "Hg6 mi
12:00 PM14 °FMostly cloudy.16 mph73%29.70 "Hg15 mi
11:00 AM12 °FMore clouds than sun.18 mph73%29.73 "Hg15 mi
10:00 AM9 °FLight snow. Broken clouds.12 mph78%29.79 "Hg15 mi
9:00 AM7 °FOvercast.8 mph78%29.83 "Hg15 mi
8:00 AM7 °FOvercast.5 mph72%29.88 "Hg15 mi
7:00 AM9 °FOvercast.9 mph66%29.89 "Hg15 mi
6:00 AM9 °FOvercast.9 mph66%29.90 "Hg15 mi
5:00 AM9 °FOvercast.9 mph78%29.91 "Hg15 mi
4:00 AM9 °FOvercast.8 mph78%29.95 "Hg15 mi
3:00 AM9 °FOvercast.5 mph78%30.00 "Hg15 mi
2:00 AM9 °FOvercast.6 mph78%30.00 "Hg15 mi
1:00 AM9 °FPassing clouds.2 mph78%30.00 "Hg15 mi
12:00 AM9 °FPassing clouds.3 mph78%30.00 "Hg15 mi
11:00 PM
Fri, Feb 12
7 °FPassing clouds.8 mph85%30.02 "Hg15 mi
10:00 PM9 °FPassing clouds.8 mph78%30.03 "Hg15 mi
9:00 PM9 °FMostly cloudy.10 mph78%30.04 "Hg15 mi
8:00 PM9 °FMostly cloudy.8 mph78%30.04 "Hg15 mi
7:00 PM10 °FPassing clouds.7 mph72%30.02 "Hg15 mi
6:00 PM10 °FPassing clouds.10 mph72%30.00 "Hg15 mi
5:00 PM14 °FPartly sunny.15 mph57%29.98 "Hg15 mi
4:00 PM14 °FPassing clouds.16 mph62%29.94 "Hg15 mi
3:00 PM16 °FScattered clouds.14 mph62%29.91 "Hg15 mi
2:00 PM16 °FPartly sunny.17 mph62%29.89 "Hg15 mi
Weather by CustomWeather, © 2016

See weather overviewHow to use our weather pages